Regional Weather Roundup
Issued by NWS

Home | Current Version | Previous Version | Graphics & Text | Print | Product List | Glossary On
Versions: 1 2 3 4 5 6 7 8 9 10 11 12 13 14 15 16 17 18 19 20 21 22 23 24 25 26 27 28 29 30 31 32 33 34 35 36 37 38 39 40 41 42 43 44 45 46 47 48 49 50
525
ASUS45 KBOI 240110
RWRID

IDAHO REGIONAL WEATHER ROUNDUP
NATIONAL WEATHER SERVICE BOISE ID
700 PM MDT SUN APR 23 2017

NOTE: "FAIR" INDICATES FEW OR NO CLOUDS BELOW 12000 FEET
WITH NO SIGNIFICANT WEATHER AND/OR OBSTRUCTIONS TO VISIBILITY

IDZ012-014-240200-
SOUTHWEST IDAHO


CITY           SKY/WX    TMP DP  RH WIND       PRES   REMARKS
BOISE          FAIR      60  41  49 NE8       29.77F
CALDWELL       FAIR      61  42  49 CALM      29.77S
MOUNTAIN HOME  FAIR      62  37  39 NW23      29.77R
$$

IDZ016-017-240200-
SOUTHCENTRAL IDAHO


CITY           SKY/WX    TMP DP  RH WIND       PRES   REMARKS
BURLEY         FAIR      61  33  35 W9        29.76S
JEROME         FAIR      60  35  39 W14       29.77S
TWIN FALLS     FAIR      59  38  45 W13       29.77R
$$

IDZ019>023-240200-
SOUTHEAST IDAHO


CITY           SKY/WX    TMP DP  RH WIND       PRES   REMARKS
IDAHO FALLS    CLOUDY    58  32  37 W15G30    29.78R
POCATELLO      MOSUNNY   59  36  42 SW16      29.78F
REXBURG        CLOUDY    55  31  39 W17G33    29.76R
$$

IDZ006-010-011-018-031-032-240200-
CENTRAL IDAHO MOUNTAINS


CITY           SKY/WX    TMP DP  RH WIND       PRES   REMARKS
MCCALL         CLOUDY    43  36  76 N6        29.79F
HAILEY         MOSUNNY   55  28  35 NW10      29.79R
STANLEY          N/A     42  33  70 E5        29.82F
SALMON         CLOUDY    48  37  66 NW21      29.77R
CHALLIS        FAIR      53  29  39 SW8       29.76S
$$

IDZ002-004-006-007-026-240200-
NORTHERN IDAHO


CITY           SKY/WX    TMP DP  RH WIND       PRES   REMARKS
LEWISTON       FAIR      56  44  64 S7        29.79F
LOWELL           N/A     56  46  69 CALM      29.80S
COEUR D`ALENE  PTSUNNY   54  37  52 SW10      29.77S
MULLAN PASS    CLOUDY    35  30  82 VRB7      29.78F WCI  29
$$




USA.gov is the U.S. government's official web portal to all federal, state and local government web resources and services.